カタログに戻る

STARLINK-34430

運用中通信VLEO
NORAD 64456·PAYLOAD·🇺🇸 United States

打ち上げ Jun 18, 2025 から Cape Canaveral Space Force Station

Loading…

次のパス (今後24時間)

TLE

最新Source: CelesTrak SupGP

元期: Sep 15, 2026, 02:47 UTC

1 64456C 25130U   26258.11645833  .00010427  00000+0  30798-3 0  2581
2 64456  53.1584 286.9338 0001089  82.5048 132.2529 15.34394212    16

AllMySatでSTARLINK-34430をリアルタイム追跡

Download on the App Store